Theta_e
337 332 329 330 329 327 321 320 302 311 307 302 300 303 301 309 309 306 308 308 309 317 318 322 322 319 317 316 319 320 323 319 319 310 312 326 338 337 338 338 339 338 337 338 338 340 343 347 347 347 346 346 347 347 346 344 342 343 342 342 342 341 341 342 341 340 339 341 342 342 341 341 341 341 341 341 340 341 341 341 341 345 343 342 343 343 343 343 343 343 344 344 343 343 343 342 341
327 328 329 330 325 320 314 317 306 304 305 300 300 302 303 308 308 307 305 310 314 316 320 322 322 323 323 323 322 319 322 324 326 323 330 334 337 335 338 339 338 336 337 338 338 340 343 347 347 347 346 346 347 346 345 344 343 343 342 340 340 343 343 343 341 341 341 342 341 339 339 343 342 341 340 339 343 341 342 342 345 346 346 346 346 345 345 344 344 344 343 343 343 341 342 340 339
327 328 328 326 321 318 312 313 301 302 300 297 300 304 307 304 306 309 311 315 318 319 322 322 323 321 320 319 316 317 317 328 330 329 328 335 330 331 337 339 338 337 337 338 337 341 342 345 347 346 346 345 345 346 345 344 344 343 341 338 338 339 342 342 341 341 341 341 342 342 342 341 339 341 341 342 341 344 343 342 342 343 343 342 343 342 342 342 342 342 342 342 342 341 341 339 338
329 328 323 323 313 316 307 307 304 301 300 298 300 304 305 306 308 312 316 318 319 320 321 319 317 324 321 315 319 320 321 325 331 329 328 330 331 335 338 338 338 337 339 339 337 341 344 345 345 346 345 345 346 346 345 343 342 341 340 340 340 342 341 340 340 341 341 341 341 342 342 341 338 337 340 341 342 342 341 344 345 345 345 345 344 345 344 343 342 341 342 342 342 341 340 339 339
329 326 323 320 314 309 308 307 304 303 299 299 298 304 306 308 310 313 317 319 318 320 319 319 319 324 326 323 322 317 324 329 331 333 330 334 336 337 338 338 337 336 337 337 338 341 345 344 345 345 346 345 346 345 344 342 341 341 341 343 342 341 338 337 340 340 340 341 339 337 336 339 339 339 339 339 341 341 341 341 341 343 344 343 343 343 343 343 342 342 342 342 341 340 340 340 338
324 322 327 321 312 314 307 301 300 301 302 304 301 303 305 309 310 316 317 317 317 319 319 319 318 320 317 321 326 323 329 322 329 331 332 333 336 338 339 338 334 333 337 337 338 342 346 343 345 344 346 346 346 345 344 342 342 341 340 341 342 340 339 338 341 342 340 337 341 340 340 340 341 340 340 340 340 340 340 341 344 344 343 341 341 342 341 342 341 340 340 340 340 340 339 338 336
322 319 319 318 313 314 304 302 302 302 302 305 303 304 305 309 313 315 315 315 317 317 319 320 321 320 316 325 325 331 333 333 330 331 335 336 338 339 337 335 333 334 337 336 342 344 347 342 345 345 346 346 345 344 342 342 342 341 340 341 342 340 339 339 342 342 341 339 338 339 341 341 341 341 341 340 339 340 342 342 342 342 342 343 342 342 341 341 340 341 340 340 340 339 337 335 335
325 314 315 308 308 306 301 302 302 304 303 306 305 305 306 310 314 313 313 312 312 313 317 320 321 318 319 326 319 328 331 334 335 337 337 337 337 337 339 334 333 333 335 338 343 346 346 341 344 345 345 345 344 344 343 342 341 340 339 337 337 340 339 340 341 340 339 339 340 341 341 341 340 340 340 338 338 340 340 339 342 341 342 341 341 341 340 339 339 340 339 338 338 338 336 335 334
320 315 320 311 305 307 301 300 303 305 305 306 305 306 310 312 314 312 311 313 314 315 315 318 321 312 319 319 322 328 330 334 336 337 337 336 336 338 336 332 331 334 335 342 344 345 346 341 344 345 345 345 344 343 343 342 341 341 340 338 338 342 342 342 340 337 337 339 338 339 339 339 339 339 338 337 338 338 338 339 342 341 341 340 341 340 339 338 339 339 339 338 338 337 335 335 334
316 314 309 309 309 302 300 301 300 304 304 306 306 306 307 311 313 314 312 310 311 312 316 320 321 313 319 317 322 327 328 334 336 336 336 336 336 337 335 333 334 335 336 341 343 345 345 344 340 342 344 345 344 343 342 342 341 340 340 338 339 341 342 341 339 337 336 335 337 337 337 336 336 337 337 337 337 338 340 342 341 340 340 339 339 339 338 338 338 337 337 337 337 337 336 335 334
309 314 316 306 304 301 299 299 302 304 305 307 306 308 310 313 313 313 313 311 313 312 319 319 314 314 316 320 325 333 334 335 334 333 335 336 337 335 335 335 336 337 336 342 344 344 344 345 342 339 343 342 343 343 343 342 341 340 340 340 343 343 342 342 340 338 336 336 336 336 336 336 337 338 338 338 338 338 338 338 339 338 339 339 339 338 337 337 337 337 337 337 337 337 336 336 335
308 309 311 303 303 303 301 300 301 304 305 306 306 308 312 313 314 310 310 307 308 313 314 317 316 318 314 318 323 330 332 334 333 335 335 337 335 336 335 335 336 336 338 341 342 342 344 344 346 343 337 338 340 341 341 342 342 340 341 342 343 342 341 341 340 338 337 336 336 336 338 338 338 338 338 337 340 338 337 337 337 338 337 337 337 337 338 337 337 336 336 337 336 337 337 336 336
310 313 307 304 304 305 303 299 301 303 304 306 307 309 313 313 312 311 309 309 310 310 311 318 321 317 313 317 327 330 329 332 333 334 336 335 336 335 334 332 334 335 336 339 337 341 344 343 344 344 339 333 334 336 337 339 341 341 342 344 343 342 340 340 340 338 336 340 343 342 341 340 339 339 339 339 339 338 337 337 338 336 337 337 337 337 337 337 336 336 337 336 336 336 335 335 334
313 313 309 304 308 305 303 301 302 299 302 306 309 310 313 312 312 312 311 307 308 309 319 322 318 318 317 322 324 325 328 333 334 335 335 336 337 335 333 332 335 334 336 336 335 338 342 343 342 344 343 343 342 337 333 336 339 341 341 342 343 342 342 342 341 340 340 341 341 341 340 339 338 338 337 337 338 337 336 336 339 336 337 337 337 337 337 336 336 335 335 335 334 334 333 333 332
313 314 308 307 304 304 305 300 300 301 301 308 306 310 312 312 311 310 310 308 311 317 320 324 326 316 313 315 320 325 329 333 335 336 336 336 336 334 334 333 334 334 333 333 334 335 339 340 341 343 343 343 342 340 340 341 333 337 339 340 341 341 341 340 339 337 338 339 338 336 336 334 333 333 334 335 335 336 334 332 335 336 336 335 336 336 335 334 333 333 333 333 333 333 332 331 331
315 311 309 304 303 303 303 302 302 301 301 307 307 309 311 311 311 309 311 312 314 319 317 314 323 317 315 319 324 330 332 334 335 336 335 335 335 333 331 332 331 332 333 334 333 334 335 336 337 340 341 342 342 339 340 340 333 332 335 336 337 338 338 337 335 334 333 333 332 331 330 333 330 333 329 333 331 333 331 331 332 335 334 334 334 335 335 334 333 332 332 331 331 331 331 331 330
316 314 304 304 302 303 303 302 301 298 303 305 307 308 307 308 311 311 311 314 311 313 314 322 318 322 320 323 328 333 334 335 334 335 334 332 331 329 328 330 330 331 332 333 334 333 334 333 332 334 336 338 341 339 339 340 339 331 331 329 331 333 334 333 331 326 325 325 328 326 329 333 334 332 334 333 329 333 324 327 331 335 335 335 334 334 335 335 334 333 332 331 330 329 328 328 329
313 306 304 303 305 304 305 303 303 304 303 304 305 308 308 307 308 310 312 312 311 315 313 320 323 322 325 325 327 334 334 333 334 332 330 329 329 327 326 327 328 328 330 331 333 333 332 333 333 332 333 335 338 339 339 340 339 336 338 339 338 335 330 329 334 337 336 337 327 333 335 332 332 332 332 335 333 334 330 324 329 333 335 334 335 334 334 333 332 332 331 331 332 329 325 330 327
307 305 305 303 307 304 306 305 305 304 303 305 305 307 308 308 309 311 307 308 309 310 311 316 316 319 323 324 327 332 332 332 331 330 329 328 327 327 325 326 326 327 327 330 331 332 333 333 333 332 333 333 337 337 339 339 338 337 337 335 336 331 336 337 335 335 335 335 335 334 332 333 333 332 336 335 333 321 326 323 327 329 330 330 331 331 331 331 331 330 329 329 331 328 331 334 331
308 304 301 304 305 305 305 306 304 305 305 304 305 305 305 309 309 313 307 307 309 307 308 312 313 316 321 323 326 331 331 330 331 329 329 328 328 328 326 325 325 327 327 329 330 333 333 332 333 333 333 333 334 335 336 335 336 336 334 332 334 334 335 335 334 335 333 334 335 333 332 333 333 335 327 328 330 334 326 321 323 324 325 326 327 329 326 328 328 327 327 326 326 332 331 330 329
309 306 302 303 305 304 304 305 304 304 305 304 304 304 303 307 309 310 308 306 307 309 310 310 312 313 321 324 326 330 329 330 330 330 329 329 329 330 329 327 325 327 328 329 329 330 332 333 332 333 333 333 334 333 333 332 334 334 335 333 334 334 334 334 334 335 335 334 333 333 333 333 333 332 332 332 334 332 333 333 331 333 333 332 323 333 332 332 328 332 331 327 332 331 330 329 328
309 307 306 304 304 303 303 304 303 303 303 304 304 303 304 307 306 307 307 304 305 308 310 311 311 312 324 324 326 330 328 329 329 328 328 328 328 328 330 331 328 328 329 327 328 329 332 333 333 333 333 333 333 332 331 331 333 332 333 333 333 334 335 334 334 333 334 335 334 334 333 333 333 333 333 332 332 332 332 332 333 333 333 332 328 331 331 332 332 331 330 330 329 330 329 328 328
304 308 306 305 304 302 303 303 302 302 303 303 303 305 305 305 305 307 307 306 308 310 311 312 314 317 327 326 328 328 328 328 328 328 329 328 329 329 329 330 329 327 329 327 329 329 330 332 333 334 331 332 332 332 332 331 331 331 332 332 333 333 334 333 332 332 333 334 334 334 332 331 331 331 331 332 331 332 331 332 331 331 332 331 329 330 330 330 329 329 328 329 328 328 328 329 328
308 308 309 307 305 304 303 302 301 302 302 303 304 305 303 304 302 307 306 308 311 310 310 311 318 323 326 326 328 327 328 329 329 330 331 330 330 330 331 330 331 331 330 327 328 328 330 330 332 333 332 332 332 332 331 331 331 331 332 331 332 333 333 332 331 331 333 332 334 333 330 331 330 330 330 330 331 331 331 330 332 330 331 330 330 330 330 328 327 327 328 327 326 328 328 328 329
307 307 306 305 304 305 305 304 302 301 302 304 303 303 304 305 304 304 304 308 310 312 311 311 317 324 324 324 326 327 328 329 330 331 332 332 332 332 332 332 332 332 330 328 329 328 330 331 331 331 332 331 332 332 331 331 331 332 332 331 331 331 332 333 333 333 333 332 332 333 331 331 330 329 330 330 332 331 332 329 329 329 330 330 330 328 329 328 327 327 327 328 329 329 329 329 329
308 309 308 303 304 306 305 306 307 302 303 302 303 305 306 305 305 302 305 307 309 312 312 314 315 320 321 322 324 326 328 329 330 330 331 332 332 330 331 331 332 331 331 331 330 329 330 330 330 330 330 331 332 332 331 331 332 331 332 332 331 332 332 333 334 333 333 330 331 332 332 332 330 328 330 331 331 332 332 331 330 331 329 331 330 330 328 329 329 328 328 329 330 330 329 330 329
309 309 305 305 308 308 306 307 310 304 305 304 305 307 307 303 302 301 307 310 310 312 312 314 314 315 317 320 324 326 328 329 330 331 331 331 331 330 330 331 331 332 333 332 332 330 331 330 330 330 331 332 332 332 332 332 332 332 332 333 333 332 332 333 333 332 332 332 332 332 332 332 331 330 331 332 332 332 332 331 330 330 330 330 331 331 331 331 330 330 329 329 330 330 329 329 328
305 306 307 308 309 309 309 307 309 310 309 308 306 305 307 303 302 301 306 307 309 309 310 314 313 313 316 319 323 325 326 329 331 331 329 329 329 329 330 330 331 332 332 332 333 334 331 330 330 330 330 331 331 331 332 332 332 331 333 333 333 332 331 332 332 332 329 332 333 334 333 331 332 332 333 333 333 332 332 331 332 331 331 331 331 330 331 331 330 331 331 331 331 330 328 328 329
306 306 304 307 307 306 309 306 307 309 308 306 307 304 305 303 299 305 307 308 309 308 311 313 312 313 316 318 322 325 325 327 330 329 330 330 331 331 330 332 332 332 333 334 334 334 333 331 330 330 331 331 330 329 331 331 332 332 332 333 333 333 332 332 331 331 332 332 333 334 333 333 331 333 333 334 333 332 332 331 331 331 331 331 331 331 331 332 331 330 330 331 329 329 328 327 329
309 308 306 304 305 305 310 308 305 303 308 305 307 298 302 304 305 307 309 309 308 308 310 312 313 313 316 318 321 324 325 326 328 330 330 330 331 331 331 332 333 333 334 334 335 333 334 334 332 332 331 331 330 330 330 331 332 332 332 332 332 333 332 331 331 332 331 331 333 333 333 333 333 332 334 334 333 332 332 331 331 330 331 332 332 331 330 330 329 329 329 328 325 326 326 326 326
306 307 306 303 302 302 302 306 307 303 305 304 308 299 302 306 306 308 308 309 307 306 308 310 311 313 316 319 320 321 324 326 327 330 330 331 331 332 332 333 333 334 334 334 334 334 334 334 334 332 331 331 331 330 330 332 333 333 331 332 331 333 332 331 331 332 332 332 332 333 333 333 333 334 335 334 333 333 331 331 331 331 331 332 331 331 330 329 329 328 327 326 326 325 326 326 326
307 302 300 304 301 301 300 305 303 302 299 304 306 300 302 306 305 304 308 308 307 305 307 308 310 312 314 317 319 320 321 325 327 328 330 330 331 331 333 333 334 333 333 334 334 335 334 334 335 334 333 332 332 330 331 332 332 333 333 329 332 333 331 332 332 332 332 332 332 333 334 333 333 332 333 334 333 332 331 331 331 331 332 331 331 330 330 328 327 328 328 327 325 325 325 325 325
304 303 303 301 302 302 301 302 303 302 300 302 305 302 296 301 307 302 302 304 306 305 306 307 309 311 313 315 317 319 320 323 325 326 327 329 331 332 332 333 333 333 333 334 334 334 334 334 334 334 334 333 332 332 333 332 333 333 333 333 333 333 332 332 332 332 332 332 332 332 334 333 332 332 331 333 332 332 331 331 331 332 332 331 329 329 328 329 327 327 325 326 326 324 323 322 323
300 304 301 305 300 302 300 297 298 302 301 298 301 301 301 302 303 302 302 304 306 305 305 306 307 310 312 314 316 318 319 321 323 325 326 329 330 331 332 329 332 333 333 333 334 333 333 333 334 334 335 334 334 334 333 333 333 333 334 334 333 332 333 333 333 333 332 331 332 332 334 334 333 332 331 332 331 332 333 332 331 331 331 331 330 329 328 329 328 326 325 326 326 325 323 322 322
300 300 300 301 301 302 302 300 298 299 299 298 300 298 298 301 304 306 305 305 305 304 305 306 307 308 310 312 313 316 318 319 321 325 327 328 329 330 331 332 332 333 333 333 334 334 334 333 333 333 334 334 334 334 334 334 334 334 334 334 334 333 333 334 334 334 334 334 334 335 335 335 334 334 333 331 331 331 332 332 332 332 331 330 329 328 328 328 328 327 326 326 327 325 325 325 323
304 303 302 303 299 300 299 304 298 301 298 298 299 298 298 299 302 305 306 305 304 304 305 305 305 306 307 309 313 313 315 316 321 324 327 327 329 330 330 330 331 332 332 332 332 334 333 333 333 332 333 333 334 334 334 332 332 331 331 333 332 332 332 331 333 335 336 336 336 336 336 336 335 334 334 333 332 332 332 331 331 332 331 330 328 327 326 326 326 327 326 326 326 326 326 326 325
307 306 303 303 302 303 304 304 299 300 298 298 300 301 300 300 302 304 306 306 304 304 304 304 305 306 307 307 308 312 314 315 321 324 327 327 329 330 330 330 330 331 331 332 331 332 332 332 331 330 332 333 332 332 332 332 330 330 330 331 330 332 332 332 331 333 335 335 336 337 337 336 336 335 334 334 333 330 332 332 331 331 331 330 329 327 328 328 328 328 327 327 325 324 324 326 326
305 304 303 302 303 301 303 301 298 299 298 299 302 302 301 302 303 304 305 305 302 303 303 304 305 306 307 308 309 310 312 317 321 323 325 327 328 330 330 330 327 328 329 330 330 330 331 331 331 331 331 331 331 331 331 332 333 332 330 330 331 332 332 331 330 331 333 335 336 337 337 336 337 336 334 335 334 333 332 331 332 331 331 330 330 330 329 325 329 329 329 326 327 325 324 326 325
305 303 302 301 301 304 299 298 298 298 296 297 301 297 299 300 302 304 304 304 305 305 305 305 305 306 306 307 309 310 311 312 317 320 323 325 327 329 329 329 329 329 329 329 330 330 331 331 331 331 332 331 331 331 331 331 333 334 333 333 332 332 334 334 333 332 333 334 336 337 336 336 336 336 336 335 334 334 333 332 332 332 332 331 329 329 329 328 329 329 328 325 324 325 324 326 325
304 303 301 299 303 300 297 299 298 297 298 298 296 293 295 299 302 303 304 305 306 307 306 306 306 306 306 307 308 308 309 311 312 314 317 320 324 325 327 328 328 329 328 329 329 330 330 330 331 331 332 332 332 332 330 333 334 335 335 335 335 334 332 334 334 334 334 334 334 336 337 336 336 336 336 336 334 334 334 333 333 332 332 332 331 329 329 329 329 328 328 327 325 321 322 322 324
305 305 303 302 301 300 301 297 297 297 298 297 296 296 297 300 300 302 304 305 305 306 306 306 307 308 309 311 313 311 308 310 311 311 312 316 319 322 324 326 328 328 328 328 329 329 330 331 331 332 332 332 333 332 332 332 333 333 333 335 335 334 334 333 333 332 332 333 333 334 335 336 336 335 336 336 335 334 334 334 333 333 332 332 331 330 329 329 329 329 329 327 325 322 320 323 321
303 305 304 304 304 301 300 297 296 296 295 296 295 291 294 301 301 302 305 305 304 306 305 305 305 306 307 306 308 310 311 311 310 310 312 314 317 320 323 325 326 327 328 329 330 330 330 331 332 332 333 333 332 333 333 332 331 330 330 329 328 328 328 329 328 328 330 330 331 334 335 335 335 335 335 335 336 333 334 335 334 333 332 331 331 330 330 329 329 329 329 327 325 325 323 323 318
300 302 306 305 304 302 300 299 299 294 292 293 295 291 290 299 298 301 303 304 305 306 304 304 305 305 306 306 307 307 308 309 310 310 312 312 314 316 319 322 324 325 327 329 330 330 331 331 332 332 332 332 334 334 334 332 331 331 330 329 329 328 327 328 331 332 331 331 333 333 334 335 335 335 334 335 335 335 334 334 334 333 333 332 331 331 330 329 329 329 329 327 326 326 325 321 319
299 306 305 305 304 301 300 299 299 298 298 298 294 294 288 289 296 301 301 300 302 304 303 304 304 305 305 306 307 308 309 309 311 311 311 311 312 313 314 318 322 324 327 328 329 330 330 330 331 332 332 332 333 334 334 333 331 331 330 330 329 329 329 329 330 331 332 331 331 332 333 333 334 334 333 333 334 335 334 334 334 333 332 332 330 330 330 330 329 330 329 328 328 326 324 323 320
301 303 305 303 303 302 302 300 299 297 294 292 294 295 289 290 296 300 301 298 299 300 302 303 304 305 305 306 307 308 309 311 311 312 312 311 311 312 312 313 316 320 323 326 328 329 330 331 331 332 332 332 332 334 333 333 331 331 331 330 329 329 330 330 330 330 330 331 330 331 331 332 332 333 333 333 334 334 334 334 334 333 331 331 330 330 330 330 329 329 328 327 326 326 325 324 323
300 305 306 305 304 302 301 299 298 297 291 288 295 294 288 290 297 299 300 298 298 300 303 304 305 305 305 306 307 308 309 311 311 311 312 312 312 313 313 313 312 315 319 323 325 327 329 330 330 330 331 332 332 332 332 333 333 330 330 330 329 329 328 329 329 329 329 330 329 330 330 330 331 331 332 333 334 334 334 333 332 332 332 331 327 329 330 330 329 329 328 326 326 325 325 324 323
304 304 301 300 301 300 299 300 296 293 287 290 296 295 292 286 295 297 298 299 299 301 303 306 308 308 307 307 307 308 308 310 311 311 310 309 310 311 312 310 310 312 316 318 320 322 325 327 328 328 329 330 331 331 332 332 332 331 329 329 329 328 329 328 326 327 328 328 328 329 329 329 330 330 331 332 333 334 334 332 332 332 333 330 327 329 329 329 328 328 327 326 325 324 322 323 322
304 301 299 298 295 298 295 292 294 287 287 292 296 296 293 286 292 298 302 299 302 303 303 304 306 307 309 308 308 308 308 306 306 306 306 307 306 307 307 306 307 308 310 311 313 316 318 321 324 324 326 327 329 330 331 331 331 331 330 329 328 329 329 328 326 326 327 327 328 328 329 329 329 330 331 331 331 332 332 332 332 332 331 331 329 329 329 328 327 326 325 324 323 323 322 321 320
301 300 298 292 288 288 287 289 284 285 286 289 291 295 290 289 296 300 300 301 302 302 303 304 305 306 307 309 310 307 305 304 304 305 307 308 307 308 307 306 306 306 307 308 309 312 314 317 320 321 322 325 326 329 329 329 329 329 329 329 328 329 329 329 328 327 328 327 328 327 327 327 328 328 329 330 331 332 331 330 328 328 328 328 328 328 328 328 326 325 324 323 323 322 321 319 318
296 295 294 290 285 284 283 286 288 289 290 290 290 292 287 294 297 300 299 302 304 304 304 305 305 306 305 305 305 304 306 305 306 307 308 309 310 311 311 311 310 309 308 308 308 309 312 314 316 318 319 323 325 326 328 328 328 328 329 328 328 328 328 329 328 328 328 328 328 327 327 327 327 328 329 329 330 331 330 329 328 328 327 326 326 326 325 325 325 323 322 321 321 321 320 319 318
296 300 297 293 290 287 283 287 284 285 287 286 292 289 288 290 293 298 299 301 302 302 302 303 303 303 304 305 305 305 306 306 308 308 308 307 307 308 310 310 310 309 309 308 308 308 309 311 314 315 317 320 323 325 326 327 327 327 327 328 327 327 328 327 328 328 328 327 327 327 327 328 328 328 329 330 331 331 330 328 328 327 325 325 324 324 323 323 323 322 321 320 319 319 318 318 317
298 300 302 296 292 298 288 287 289 287 286 284 285 288 295 296 299 301 301 301 301 302 301 302 302 302 304 303 304 304 305 307 309 308 307 306 306 306 308 309 310 309 309 309 308 308 309 310 311 313 315 317 320 323 325 326 326 326 327 326 326 327 326 327 327 328 328 329 328 327 327 328 328 329 329 329 330 330 329 327 326 325 324 324 324 323 322 321 321 321 319 318 317 317 316 315 312
296 297 292 296 301 299 291 287 289 287 288 287 289 288 293 299 299 301 301 300 301 301 301 301 301 302 303 303 305 305 306 308 308 309 307 307 306 307 307 307 308 309 310 310 309 309 308 309 310 311 313 316 318 321 323 325 325 324 325 325 326 326 326 326 326 327 328 329 329 328 327 327 329 329 329 329 329 328 327 325 323 322 322 323 322 321 320 320 320 319 317 316 315 313 314 311 309
298 291 296 301 302 299 292 287 287 286 285 287 289 288 291 291 290 302 300 299 301 301 301 301 302 303 302 304 307 308 309 309 307 306 305 306 306 306 308 308 308 309 309 308 307 308 309 310 310 310 311 313 315 318 320 321 322 322 323 324 324 325 325 326 326 327 328 328 328 328 328 327 328 328 328 328 328 325 323 316 321 319 318 318 319 319 318 318 316 313 312 311 310 310 309 306 306
298 296 306 294 288 287 292 289 283 282 283 286 289 289 290 293 294 295 297 299 300 302 303 303 301 301 302 303 304 306 308 306 305 306 306 307 307 306 306 307 307 306 306 306 307 306 307 308 311 313 313 314 315 318 319 321 322 323 323 323 323 324 325 325 326 327 327 327 328 328 328 328 328 327 325 323 323 320 318 317 318 316 315 314 312 312 313 312 312 311 310 308 307 307 305 303 304
298 299 297 302 296 293 289 289 289 289 285 285 286 287 287 295 296 299 297 298 299 300 301 302 303 303 302 303 305 306 308 306 306 305 306 306 305 306 307 307 307 307 306 305 305 306 306 307 307 308 311 314 316 318 318 317 318 319 321 322 323 324 324 325 326 326 326 326 326 325 325 324 324 325 324 321 318 316 314 313 312 313 312 310 309 307 309 310 311 311 308 305 304 303 300 299 298
291 293 292 294 294 295 294 295 290 288 286 287 287 286 290 298 300 301 300 300 300 301 302 303 304 305 305 305 306 306 306 306 306 305 304 304 305 306 307 308 308 306 305 305 305 306 307 307 306 307 308 309 310 313 316 315 315 316 317 318 320 322 323 324 324 325 324 324 325 323 323 324 322 320 319 317 315 313 312 311 310 308 306 305 306 305 306 307 308 306 303 302 299 300 300 297 297
294 293 292 294 291 288 286 285 295 290 287 286 287 285 291 297 301 302 303 304 304 305 304 304 305 304 304 305 306 305 305 305 305 304 303 303 303 306 308 307 306 305 304 303 304 305 306 307 308 308 308 309 309 310 310 312 313 314 315 316 317 319 320 321 321 321 320 321 321 320 320 319 318 315 314 314 313 312 310 310 309 307 305 304 305 306 304 305 303 301 300 301 297 298 298 295 294
Wind_Speed
7 5 4 4 5 5 6 4 5 5 6 1 3 3 6 3 2 4 5 5 6 6 4 3 5 5 3 5 8 5 10 8 9 3 3 6 6 8 9 10 10 10 9 8 8 7 7 7 9 10 10 10 11 11 11 11 11 12 12 12 12 11 12 13 13 11 10 14 13 13 13 12 13 13 13 14 13 15 15 13 13 15 16 17 17 17 17 17 17 17 17 18 18 18 17 17 17
4 4 4 4 4 4 3 2 5 3 4 3 5 1 6 5 5 5 6 3 6 7 4 5 5 3 3 5 4 1 10 10 10 8 7 7 7 8 10 9 10 10 8 8 8 8 7 7 8 10 11 11 11 12 11 11 12 12 12 12 11 14 13 12 12 13 13 13 13 11 13 15 14 13 13 13 16 13 13 14 14 14 17 17 17 17 18 17 17 17 17 17 17 17 17 17 17
3 4 5 5 5 6 5 4 6 1 3 2 6 6 5 4 3 3 6 7 8 8 5 5 4 3 1 2 6 5 5 5 11 11 8 9 10 8 10 10 10 9 9 6 7 8 7 7 7 10 11 12 12 12 12 12 13 12 12 11 11 12 13 12 12 12 13 13 13 13 13 13 12 13 13 14 14 16 14 13 13 13 14 14 16 16 16 16 17 16 16 16 16 16 16 16 16
4 3 5 4 5 4 5 5 6 4 3 2 4 5 4 3 4 8 8 8 7 6 6 5 6 3 4 3 5 1 5 6 9 9 8 10 6 11 10 10 10 8 7 5 7 8 7 8 8 11 11 12 12 13 12 12 12 11 12 13 11 13 12 11 13 13 12 13 14 14 14 14 12 12 13 14 14 13 12 14 14 14 16 16 15 16 16 16 16 16 15 16 16 16 16 16 15
5 3 3 5 6 3 3 3 5 3 3 4 5 5 3 2 7 7 8 7 6 4 5 5 3 3 4 3 3 2 6 8 7 7 7 6 13 11 10 9 8 9 8 7 8 9 9 10 9 10 11 11 13 13 12 11 11 12 13 13 12 11 10 10 12 12 13 12 11 11 11 12 13 12 12 13 13 12 13 13 14 14 14 14 16 16 16 16 16 16 15 15 15 15 15 14 14
6 4 2 5 4 3 4 5 6 3 6 4 3 6 2 3 6 8 8 6 5 2 2 5 3 4 4 1 4 4 2 3 5 5 9 8 11 12 11 8 8 8 8 7 9 8 8 9 9 10 11 12 14 13 11 11 12 12 12 13 13 12 11 11 12 12 12 12 13 13 12 13 12 12 12 11 10 12 12 14 14 15 15 14 14 14 14 15 15 15 14 15 15 14 14 14 14
3 5 5 5 3 3 5 5 1 2 6 3 5 4 4 5 7 8 9 6 3 1 2 3 2 2 5 5 4 6 6 6 4 5 5 11 11 11 9 8 8 9 8 8 8 9 10 8 11 12 11 10 13 12 11 11 12 12 11 13 12 11 11 11 13 11 11 11 11 12 13 13 12 12 11 10 9 11 13 13 14 13 13 13 13 14 15 14 14 14 14 14 14 13 14 13 13
3 5 4 6 3 3 5 3 2 1 6 5 3 4 3 6 7 6 8 6 7 5 7 1 3 6 4 1 0 5 4 5 8 10 13 11 12 11 8 8 9 9 8 9 9 9 11 8 10 10 10 12 11 12 11 11 12 11 10 9 8 12 12 12 12 12 11 12 12 12 12 12 12 11 10 10 10 12 12 12 13 13 12 13 14 14 14 14 14 14 14 13 13 13 13 13 13
3 6 1 5 6 3 3 4 2 3 4 2 3 4 3 3 5 6 7 3 6 1 7 6 2 5 6 5 3 6 6 5 5 9 9 13 12 10 6 8 8 8 9 10 9 9 10 8 9 9 8 10 10 11 10 9 9 10 10 9 10 13 13 11 11 10 11 12 12 12 12 12 11 11 10 10 9 10 10 11 13 13 12 12 13 13 13 12 13 13 13 13 12 12 12 12 12
3 3 3 5 5 4 3 3 4 5 4 4 2 4 6 4 6 5 6 4 2 4 4 3 2 5 2 1 6 6 5 7 9 9 10 12 11 8 7 7 9 10 9 9 9 10 9 9 7 7 6 8 8 9 10 9 8 9 10 10 11 12 12 12 11 11 10 9 11 10 11 10 10 10 10 9 8 9 12 12 12 12 12 12 12 12 12 12 13 13 12 12 11 11 11 11 11
6 4 2 5 5 4 3 4 3 6 4 3 3 4 4 5 6 5 5 2 3 3 6 3 4 6 3 3 5 5 7 7 10 11 11 11 10 8 7 7 9 9 10 9 10 10 10 10 8 7 5 7 7 7 8 8 9 9 10 11 13 13 12 11 11 11 11 11 10 10 9 10 10 10 10 9 8 8 9 10 11 11 11 11 11 11 11 11 12 12 11 11 10 10 10 10 10
5 6 4 6 6 4 1 2 3 4 4 2 6 5 3 7 6 5 5 4 4 3 4 9 2 2 4 2 4 6 8 8 10 11 12 11 9 7 7 6 7 8 10 10 10 10 10 10 9 7 7 8 7 6 6 6 7 8 7 11 11 12 12 12 11 11 11 11 10 11 11 11 11 10 9 8 5 7 8 8 10 10 10 10 10 10 11 11 12 11 11 10 9 9 9 9 9
6 2 5 6 3 3 4 4 2 3 4 4 6 4 5 7 7 5 5 2 4 4 5 7 4 4 3 2 7 7 9 10 9 12 10 9 8 7 5 7 7 8 9 9 9 10 11 10 10 10 8 9 7 6 6 6 6 6 5 6 9 10 11 11 11 11 10 11 14 15 13 12 11 11 11 10 10 9 8 7 7 9 10 10 10 10 11 11 11 10 10 10 10 10 10 9 8
5 1 4 6 2 4 3 2 1 5 4 5 5 4 6 5 6 1 3 4 5 3 7 5 2 1 1 4 7 7 9 11 11 11 8 8 7 6 6 7 7 8 8 8 9 9 9 9 9 10 9 10 8 7 6 6 6 7 7 8 9 9 10 10 9 9 11 11 11 11 11 11 11 11 10 10 9 7 7 5 4 9 11 11 10 10 11 11 10 9 10 10 10 10 9 9 8
3 1 5 5 2 4 2 4 1 5 6 4 3 4 6 2 2 2 3 5 6 7 5 2 3 3 3 6 7 8 12 13 12 11 9 8 7 6 7 7 7 7 8 8 8 9 9 7 9 9 9 8 10 7 7 5 6 7 8 9 9 10 10 10 9 10 11 11 10 11 9 9 9 9 9 8 8 7 6 9 9 8 8 9 9 10 10 10 9 9 9 9 9 8 8 7 7
3 3 4 5 5 5 6 5 2 6 5 6 4 1 5 3 2 3 2 7 5 3 4 3 3 2 4 4 8 12 15 14 12 11 9 8 7 6 6 6 7 8 7 7 7 7 8 8 7 6 7 8 7 7 7 7 5 7 8 8 8 9 10 9 9 9 10 10 11 11 11 9 8 7 9 8 8 9 8 7 8 6 7 7 8 8 9 10 9 8 7 7 6 6 6 5 5
2 3 5 5 5 5 4 4 5 2 7 7 3 3 6 4 4 2 3 4 4 6 5 2 4 2 5 6 5 13 15 13 13 12 10 7 6 6 6 5 6 7 6 7 7 7 7 8 8 7 7 7 6 6 6 7 7 8 7 7 8 8 9 9 9 9 8 8 8 9 9 7 6 6 7 6 7 6 7 8 8 8 7 7 7 7 8 9 8 7 5 4 3 3 3 5 5
2 5 6 6 4 6 4 3 4 2 4 6 4 2 5 4 6 2 1 5 6 3 6 5 2 4 5 5 1 11 14 13 14 14 10 8 7 6 6 6 6 7 6 6 7 7 7 7 8 7 7 7 6 5 5 6 6 6 7 7 6 6 7 8 8 7 7 6 6 6 6 5 5 6 6 8 7 7 6 7 8 8 8 7 7 7 7 7 6 5 3 2 0 2 5 4 5
2 3 4 5 2 6 4 5 5 2 5 5 3 1 4 1 1 5 5 6 8 7 7 6 7 7 7 6 6 13 13 13 14 14 13 11 9 9 7 6 7 7 7 6 6 8 7 6 7 7 7 8 7 7 5 5 8 6 6 6 6 7 7 7 6 6 6 6 5 5 4 4 5 4 5 6 6 8 7 6 8 8 7 6 5 5 4 4 3 3 1 1 3 6 6 3 2
3 2 4 5 6 6 7 4 5 6 3 3 4 3 2 2 2 5 6 6 5 9 6 9 9 10 10 9 10 13 12 13 14 15 14 13 10 9 8 8 7 7 7 6 7 6 7 6 7 7 7 8 8 7 5 6 6 6 5 5 5 6 6 6 5 6 5 6 6 5 4 4 4 6 5 6 6 5 5 7 7 8 8 6 6 4 5 3 2 3 4 5 5 4 2 2 2
4 3 5 2 3 4 5 4 4 4 5 3 3 1 3 3 5 5 4 8 9 8 8 7 8 9 12 11 13 14 14 13 14 14 14 13 12 9 8 7 7 7 6 6 6 7 8 7 7 6 7 7 8 7 7 6 6 5 5 4 4 5 6 5 5 5 5 6 5 4 4 4 4 4 5 5 6 5 5 5 5 5 5 5 5 4 4 5 5 4 4 5 5 1 1 1 1
2 7 2 3 1 2 5 4 4 3 2 4 1 4 3 4 4 8 9 9 4 2 2 4 5 5 15 14 14 13 14 15 15 15 15 15 15 13 10 8 6 6 7 7 7 8 8 7 8 7 7 8 8 7 7 6 6 6 5 5 4 4 5 5 5 5 5 6 5 4 4 4 4 3 4 3 3 3 3 3 4 3 2 3 4 3 3 3 4 3 3 3 2 1 1 1 1
7 5 4 0 0 2 4 3 3 3 3 3 4 4 5 5 5 7 10 12 3 4 5 7 3 2 13 13 14 13 14 15 16 17 16 15 14 14 12 10 7 7 7 7 7 7 8 8 8 8 8 8 8 7 6 6 7 6 5 5 4 5 4 5 5 5 5 6 5 5 5 4 4 4 4 4 4 3 3 3 3 3 3 2 2 2 2 2 3 2 2 2 1 1 2 1 1
6 6 7 6 3 2 4 3 2 2 4 4 4 5 6 5 8 1 9 10 10 5 5 4 3 4 12 14 15 16 16 17 17 16 15 14 13 13 11 11 8 6 6 7 7 7 8 10 10 9 9 8 8 7 6 6 6 6 5 5 5 4 4 5 5 5 5 5 6 5 5 4 5 4 4 4 4 3 3 2 2 2 2 2 2 1 1 2 2 2 1 0 1 2 1 2 3
8 6 5 3 3 2 2 1 1 2 3 3 3 5 7 5 7 4 9 11 10 6 5 5 4 6 8 11 14 14 14 14 14 14 12 11 12 12 12 9 9 8 8 8 7 7 9 9 10 10 9 10 8 8 7 5 5 6 6 5 6 5 5 4 4 5 4 5 6 6 6 5 5 4 5 5 4 4 3 3 3 3 2 2 2 2 2 2 2 2 2 2 1 2 2 3 3
8 7 5 4 5 4 2 3 4 3 1 2 5 8 7 3 4 10 15 12 8 7 6 6 6 7 8 10 12 12 13 14 14 14 14 11 10 13 13 11 9 10 9 8 8 7 8 9 10 10 10 9 8 8 7 6 6 6 6 6 6 6 5 5 5 5 5 5 6 6 6 5 4 5 5 4 4 4 3 3 3 3 3 2 2 2 2 2 2 2 1 2 3 3 3 2 2
1 6 2 3 5 5 3 6 5 3 4 4 7 10 8 4 1 5 4 1 6 7 7 8 8 8 8 8 10 11 12 13 14 12 11 11 11 12 13 13 12 11 10 11 9 8 7 9 9 10 10 9 8 8 7 6 6 6 6 6 6 6 5 5 5 5 5 5 5 7 6 6 5 5 5 5 4 4 4 4 4 3 3 3 2 2 1 2 2 3 3 4 3 3 3 3 4
4 2 4 7 8 7 7 6 8 5 7 7 7 9 8 3 5 10 2 3 4 7 8 8 9 9 8 9 10 10 10 11 11 11 14 14 12 12 13 12 13 11 10 11 9 8 8 10 10 10 10 9 8 8 7 6 6 6 6 6 6 6 6 6 5 5 5 5 5 5 6 6 6 5 5 5 5 5 5 4 4 4 3 4 3 3 3 3 3 3 1 2 3 4 4 4 4
4 3 3 6 6 8 9 9 7 7 7 6 2 9 13 9 9 10 9 5 6 7 8 8 9 8 9 9 9 9 10 10 10 11 13 13 12 11 13 13 12 12 9 11 10 11 11 10 9 10 10 10 10 10 8 7 6 6 6 6 6 6 6 6 6 6 6 5 5 6 6 6 6 5 5 5 5 4 5 4 4 4 4 4 3 3 2 3 3 3 3 3 4 5 5 6 5
3 5 4 2 6 9 10 7 5 5 5 6 4 9 11 12 15 14 8 7 5 6 7 8 7 8 8 9 9 9 10 10 12 12 12 12 12 12 13 13 13 11 9 9 11 11 9 7 7 8 10 11 11 9 8 7 7 6 6 6 6 7 6 6 6 6 6 6 6 7 7 7 6 6 5 6 5 5 5 5 5 5 4 2 1 2 4 5 4 4 4 4 4 5 5 4 4
6 5 2 4 4 4 7 5 7 8 4 7 6 11 9 7 4 6 6 7 7 7 7 8 8 8 8 8 9 9 11 11 13 13 12 12 11 10 12 12 14 13 10 10 12 12 12 9 8 7 9 11 11 10 9 8 7 7 7 6 6 7 6 6 6 6 6 6 7 7 8 7 7 7 6 5 6 5 5 5 5 5 4 3 3 4 4 4 4 5 5 5 5 5 4 4 4
5 5 6 6 6 3 4 4 6 8 4 8 9 11 12 12 4 6 4 4 6 7 7 9 9 8 9 8 9 9 10 11 11 12 13 13 12 11 12 13 13 14 13 11 11 11 13 13 11 9 10 11 10 10 9 8 8 7 7 7 6 7 6 6 6 6 6 6 7 6 9 8 8 8 7 6 6 6 5 5 5 5 4 4 4 5 4 5 4 4 4 4 4 5 5 4 4
6 7 6 8 7 4 2 6 2 4 0 10 15 8 5 7 9 6 3 5 6 7 9 9 9 10 9 8 8 8 8 10 10 12 13 12 12 11 11 12 12 13 13 12 12 12 12 13 12 12 12 11 11 11 9 8 8 8 8 7 7 6 7 6 6 6 6 7 7 7 8 8 8 8 8 7 6 6 6 5 5 6 5 5 5 4 5 4 4 3 3 3 3 4 4 4 3
7 8 7 8 7 6 6 4 4 4 7 8 13 14 8 3 4 6 6 6 5 6 8 9 8 7 7 7 7 8 9 10 11 12 14 13 11 13 11 11 12 13 13 13 13 12 12 12 13 13 12 11 10 10 10 9 8 8 7 7 7 7 7 6 6 7 7 7 7 7 7 8 8 8 8 8 7 7 6 6 6 5 4 4 4 5 5 4 4 4 4 3 3 3 4 3 3
8 9 7 7 6 9 6 4 7 5 6 10 10 14 13 10 12 12 5 8 6 6 6 7 7 7 7 7 8 9 9 10 11 11 13 13 13 13 11 11 12 12 11 14 13 12 11 11 11 12 12 13 11 10 11 10 10 9 9 9 9 9 8 7 7 7 7 7 7 7 7 7 7 8 9 9 8 7 7 7 6 7 6 6 5 5 5 5 5 5 5 4 2 2 3 3 3
7 8 8 7 8 9 9 4 8 8 8 9 12 11 11 12 13 13 11 9 8 9 8 6 6 5 6 7 8 8 9 10 9 9 11 11 12 12 12 11 11 11 12 12 14 14 13 12 12 12 13 14 13 11 9 10 9 10 10 10 10 9 8 8 7 7 8 8 8 8 8 7 8 8 9 9 8 8 8 7 8 8 7 7 6 6 6 5 6 6 6 5 4 3 2 2 2
10 7 7 9 8 6 3 3 6 4 3 10 12 13 13 12 10 11 12 8 8 8 10 10 9 8 8 8 8 9 9 9 7 9 9 12 13 12 12 11 11 12 12 13 14 15 14 13 12 14 13 14 12 11 12 10 10 10 10 12 11 10 7 7 8 8 8 9 8 9 9 8 9 9 9 9 9 8 8 7 8 8 8 7 6 7 6 6 5 5 5 5 5 5 4 3 2
9 7 7 7 7 8 5 7 6 4 5 7 12 13 14 13 11 12 12 11 10 11 11 11 11 11 9 9 10 9 8 5 6 7 10 11 11 13 12 11 12 14 14 15 16 16 15 15 15 14 13 14 15 15 13 12 12 11 10 10 10 10 8 8 10 9 9 9 9 9 10 10 10 10 9 9 9 9 9 8 8 7 7 8 7 7 7 6 6 5 4 6 5 5 5 4 3
9 7 6 7 7 6 4 3 5 5 5 8 9 10 12 13 13 13 14 14 13 11 12 12 12 11 10 9 9 8 7 8 8 9 10 11 12 13 12 12 12 15 15 16 15 14 15 15 15 14 13 13 12 13 12 13 12 11 11 9 11 9 10 10 10 9 9 10 11 12 12 12 11 10 10 9 8 9 9 9 8 7 7 7 7 8 8 8 7 6 6 6 5 5 4 3 3
10 8 8 9 6 8 6 9 7 7 6 4 4 7 10 13 13 14 14 15 14 13 11 12 11 11 11 11 9 8 9 9 10 10 12 12 12 12 12 12 13 13 13 13 14 16 14 14 14 15 13 13 12 13 12 13 12 12 12 11 10 10 9 9 9 9 10 12 12 11 11 11 11 11 10 10 9 8 8 9 9 8 8 8 9 9 8 7 7 7 7 8 7 6 5 5 5
12 13 10 8 7 8 7 3 5 4 7 4 8 10 12 12 14 13 14 16 16 15 13 12 10 9 9 7 4 7 10 9 9 10 10 11 12 13 15 14 12 12 13 14 14 15 12 17 16 16 14 14 13 13 14 12 11 11 11 9 9 9 9 9 10 10 11 10 10 11 13 11 12 12 11 12 11 10 10 9 9 9 9 9 8 9 9 9 8 8 7 7 7 7 7 5 5
12 14 12 10 5 7 5 4 3 4 5 5 4 5 6 7 15 16 11 12 16 15 16 14 12 11 10 11 11 10 8 9 10 10 10 11 12 12 12 12 12 12 13 14 14 16 15 13 14 15 14 13 14 15 15 13 12 13 12 12 12 12 12 12 12 13 11 12 12 10 12 13 13 12 12 12 12 10 10 11 11 10 9 9 9 9 9 8 8 7 7 8 8 8 5 4 4
12 12 12 12 7 3 4 4 2 4 6 4 4 5 6 3 4 3 7 11 15 13 14 15 13 13 12 11 11 10 11 10 10 11 9 9 11 11 12 13 14 14 15 12 12 13 14 13 14 15 14 12 13 14 16 13 14 12 14 15 13 13 14 12 12 11 11 11 10 11 11 11 12 11 11 11 11 11 11 11 10 9 8 9 9 9 9 9 8 8 7 6 7 4 4 6 6
10 3 11 13 9 6 5 5 5 6 5 4 4 4 7 10 7 8 6 9 10 12 12 12 12 13 14 13 13 12 11 10 9 11 12 12 11 11 12 13 12 12 9 9 11 11 14 15 13 14 13 12 12 13 15 15 14 13 14 14 12 12 12 11 11 11 11 10 11 10 9 10 8 9 11 11 11 12 11 11 10 9 11 11 8 9 9 8 7 5 6 7 6 5 7 7 7
2 3 8 8 7 6 4 4 6 2 6 6 4 3 4 8 2 4 9 10 12 14 15 14 14 14 14 13 13 13 13 12 11 9 10 11 11 11 11 10 10 10 9 10 10 10 11 12 13 13 14 14 13 15 14 16 14 13 13 12 12 11 11 10 9 8 10 11 13 11 11 11 10 11 11 11 11 12 8 7 8 9 9 9 8 8 7 8 8 7 7 6 7 6 7 7 5
2 3 6 3 3 2 2 4 5 4 3 8 6 6 5 11 9 8 8 11 13 13 14 15 15 15 14 14 14 13 12 10 10 10 9 9 9 9 9 8 8 8 7 8 9 8 9 10 12 14 15 12 12 14 14 15 15 12 12 13 13 11 10 9 10 10 11 11 13 13 12 11 10 11 12 12 11 12 10 11 9 9 8 8 7 8 8 7 6 6 7 8 7 9 7 6 6
11 10 9 7 3 3 1 2 2 3 10 9 8 7 5 8 5 6 7 9 9 8 10 11 13 14 14 13 13 11 10 7 4 5 4 4 4 5 5 7 8 7 5 7 8 8 8 10 11 14 14 11 11 13 14 15 14 13 13 13 13 13 12 12 11 12 12 12 13 12 12 12 11 11 10 10 12 11 11 11 11 10 9 7 6 7 6 6 7 8 8 10 9 8 6 6 5
12 6 8 7 3 2 2 1 1 5 8 1 7 10 11 9 3 4 5 4 5 8 10 10 10 11 12 9 9 9 6 5 4 4 5 5 5 6 6 7 8 8 7 8 8 8 9 10 10 13 13 13 11 11 13 13 13 14 13 14 14 13 13 11 13 13 13 13 12 12 11 11 11 10 10 10 11 11 9 8 9 9 8 7 7 8 6 8 9 8 7 7 7 7 6 5 5
7 8 8 7 3 2 4 4 5 9 8 2 2 5 7 19 12 8 6 6 6 8 7 7 6 7 9 8 2 5 3 3 3 4 4 5 5 6 7 7 7 8 8 8 8 8 8 9 11 12 13 13 12 12 13 14 13 14 13 13 14 12 13 13 12 12 11 11 10 10 12 11 10 11 11 11 12 12 10 8 7 7 6 6 7 7 8 9 8 7 7 8 9 10 8 8 7
8 10 9 7 7 5 8 8 4 4 3 4 5 2 10 7 7 14 20 18 15 13 12 12 13 11 5 1 0 1 3 4 5 5 5 6 6 6 6 6 7 6 7 7 7 8 8 8 10 11 12 10 11 12 12 13 14 13 13 12 11 10 12 12 13 11 11 10 9 11 13 12 11 13 11 10 12 12 9 9 9 8 7 7 8 9 8 8 8 7 7 9 10 8 8 9 8
8 4 8 6 6 4 9 7 9 2 1 4 4 2 5 3 1 3 6 3 3 3 4 3 3 4 6 4 3 5 5 6 6 6 7 7 7 7 7 6 6 6 6 6 6 8 7 8 9 11 10 10 11 12 11 13 12 12 11 11 10 9 10 11 13 12 11 11 10 11 12 11 12 11 9 8 10 12 10 9 9 9 7 7 7 7 7 8 8 7 7 8 8 7 7 7 5
10 9 7 10 12 5 3 2 2 1 2 4 6 6 3 4 6 5 6 7 8 7 6 6 7 5 4 6 5 5 6 6 5 5 6 7 6 6 5 5 5 5 7 6 7 7 7 8 8 10 11 10 11 11 11 11 11 10 11 11 11 10 8 9 10 9 10 10 10 11 11 11 10 9 8 9 10 10 10 9 9 9 8 8 8 9 8 8 8 8 7 7 8 5 7 6 4
11 10 13 10 5 7 3 1 2 2 3 10 6 5 7 8 11 13 9 9 8 9 9 7 7 6 5 6 6 5 5 4 3 2 3 3 4 5 4 4 3 4 4 5 6 6 7 7 7 9 9 8 9 10 10 10 10 10 10 10 10 10 11 11 11 11 10 9 9 9 10 9 8 8 7 7 8 8 8 9 9 9 9 9 8 8 7 7 7 6 6 8 7 7 7 8 5
10 10 11 6 4 6 3 6 3 3 8 5 6 8 4 3 6 9 16 13 12 10 9 8 8 7 6 6 5 5 4 3 2 3 4 4 4 4 4 3 3 3 3 3 4 3 3 5 7 8 8 9 9 9 9 9 9 9 9 10 10 10 11 11 11 11 9 8 9 8 8 7 7 6 6 5 7 8 8 8 9 9 8 8 8 8 8 7 6 5 6 7 7 8 7 5 5
5 8 7 9 6 7 8 1 6 5 8 5 6 9 10 9 9 4 9 14 14 13 11 10 9 7 7 5 5 4 3 2 3 3 2 2 2 3 4 4 4 3 3 2 2 3 4 4 4 4 6 7 8 7 7 6 7 5 5 8 9 10 11 10 10 9 8 7 8 6 7 5 5 7 6 6 7 7 7 8 8 8 8 8 7 6 7 8 8 7 7 6 6 7 7 6 5
2 3 7 9 4 7 7 9 2 0 8 3 3 7 8 10 11 8 7 10 9 8 10 12 13 9 7 5 4 3 2 2 2 2 2 2 1 1 2 4 5 5 4 3 2 1 1 1 2 2 2 1 3 6 6 6 5 6 4 3 4 5 7 8 7 8 9 8 7 7 8 6 7 6 7 8 7 8 8 8 7 8 9 9 9 7 7 8 8 8 7 6 6 6 7 7 6
9 9 10 8 5 3 4 3 8 4 4 6 7 7 5 4 9 12 11 9 9 7 5 5 6 6 6 4 3 2 2 3 2 2 2 2 2 2 3 2 3 3 2 2 1 0 1 1 0 1 3 4 4 4 5 6 7 9 9 8 8 7 8 7 9 9 9 9 8 8 8 8 6 7 7 7 8 8 8 8 8 7 8 8 10 10 9 8 7 6 6 6 5 6 7 6 7
12 12 12 11 9 5 8 9 6 5 5 5 5 10 1 4 4 9 11 9 8 6 6 6 5 6 5 3 3 2 3 3 3 2 2 2 1 1 2 3 2 2 2 2 3 2 2 2 2 2 2 2 3 4 4 4 6 7 10 10 10 7 7 8 9 9 8 7 7 6 7 6 8 7 7 8 8 7 8 8 9 9 9 10 10 11 9 8 7 7 6 5 6 7 7 7 7
Wind_Direction
268 225 263 256 261 265 287 232 265 172 245 242 115 210 94 91 87 152 125 133 166 70 87 135 99 142 334 11 15 22 45 32 9 292 76 120 160 125 132 128 125 125 124 123 125 138 139 93 95 108 122 125 115 110 114 105 100 98 95 89 90 94 89 88 87 89 89 81 77 78 81 77 76 80 81 83 82 75 75 78 79 69 73 76 77 76 76 73 74 74 72 70 68 66 64 63 64
271 290 252 252 262 281 212 343 275 231 217 157 88 26 98 109 207 164 130 176 50 115 118 133 129 56 25 336 350 358 60 48 38 86 85 115 150 131 131 138 132 127 123 127 138 140 137 115 99 120 128 128 122 121 116 108 102 100 98 98 95 94 92 93 94 90 85 84 82 77 78 73 74 78 86 86 83 85 85 81 81 81 82 83 82 79 78 77 74 72 72 71 69 68 66 65 65
290 271 253 228 255 249 300 231 269 360 283 98 92 77 117 155 176 123 90 74 88 111 112 120 100 158 204 209 192 312 81 69 82 83 108 142 146 146 147 139 125 126 127 136 131 131 138 119 113 128 132 131 128 126 121 113 110 105 102 99 103 102 96 88 86 89 89 88 89 86 82 84 85 93 87 88 84 74 74 76 72 81 91 88 79 78 80 80 76 75 73 72 72 70 67 66 64
283 275 280 278 274 209 254 226 255 307 310 31 113 108 138 159 129 88 82 86 101 135 144 138 181 66 306 194 44 216 102 100 84 114 116 180 142 144 147 128 126 125 122 133 125 130 127 121 126 133 135 136 139 131 123 119 113 110 105 100 94 90 95 95 90 86 86 83 85 84 83 82 85 87 89 86 86 85 81 78 76 77 77 78 83 82 82 82 79 75 75 74 72 70 68 67 65
264 251 251 276 284 246 294 299 311 263 353 17 45 123 135 153 110 108 94 95 106 148 177 158 185 126 359 346 354 313 77 91 107 121 148 108 109 142 134 129 135 123 134 138 129 125 110 108 126 135 137 134 131 125 119 119 114 109 107 107 104 101 93 92 92 90 91 93 95 91 94 101 98 96 92 96 93 89 86 84 87 93 96 94 87 86 82 80 77 76 75 76 74 71 69 67 65
258 263 221 258 292 9 248 238 206 238 50 335 18 72 136 113 121 123 115 114 100 101 341 196 314 141 192 100 23 27 20 220 116 123 137 112 133 139 128 154 128 136 133 136 127 132 126 122 132 140 136 132 127 124 122 122 118 114 112 110 111 104 94 91 97 96 95 93 86 93 90 87 88 89 88 85 81 94 87 80 70 63 64 74 82 84 80 77 76 78 79 77 74 72 71 68 66
307 283 221 232 210 234 268 261 284 25 75 348 32 69 137 123 122 138 134 127 144 84 169 209 167 150 214 113 131 70 71 93 178 112 121 126 131 132 147 139 131 125 138 130 119 118 127 129 140 141 139 129 127 123 126 123 120 119 116 118 122 117 108 107 101 100 96 96 96 94 95 92 88 87 88 94 93 90 88 82 77 78 84 87 87 84 82 80 79 78 78 77 77 75 72 69 65
260 288 18 298 236 220 232 293 313 348 78 23 45 56 102 130 140 160 155 194 154 209 169 112 236 278 67 201 353 86 101 28 41 101 109 130 142 140 151 131 129 133 135 123 123 114 124 126 133 139 141 132 126 124 124 123 124 123 116 117 114 108 110 108 107 109 104 95 99 98 95 93 92 88 90 95 102 104 100 93 87 90 86 83 80 80 82 82 84 83 81 80 78 75 71 68 65
238 272 174 268 258 174 275 232 65 70 99 93 115 61 21 130 164 163 168 103 127 236 162 178 183 243 92 144 67 103 90 113 112 107 138 137 143 146 142 134 134 135 139 126 125 130 132 119 134 140 139 129 128 128 125 124 128 128 123 124 123 113 111 115 113 105 107 107 95 93 95 96 99 101 98 95 98 97 97 96 88 87 85 83 83 83 84 86 84 82 80 78 76 74 71 68 65
228 255 234 262 330 243 212 179 234 96 64 72 83 114 158 163 170 203 159 162 156 178 123 103 186 269 36 155 130 156 123 142 133 138 139 139 139 147 133 128 127 142 140 130 132 132 129 121 117 118 131 126 121 121 124 121 123 125 127 131 121 113 114 116 116 108 99 104 102 100 100 102 102 101 97 95 97 104 98 97 97 90 86 84 81 81 84 83 83 83 81 78 74 71 69 67 64
236 177 291 272 225 268 213 169 182 139 119 124 131 119 155 173 176 190 186 134 120 175 128 163 198 226 234 102 51 79 111 144 151 144 146 141 141 147 131 123 130 149 138 136 123 127 135 135 112 100 100 113 112 113 117 123 120 121 125 119 114 116 117 120 119 115 113 110 113 118 112 103 101 100 101 100 108 117 118 104 98 94 89 88 84 82 78 78 79 78 77 75 72 70 68 66 63
255 219 174 250 256 257 64 360 141 117 117 158 117 134 158 171 178 186 169 188 178 182 176 187 58 123 221 174 111 130 137 151 158 140 148 139 148 150 126 129 143 148 140 136 140 135 135 142 143 109 92 99 103 104 108 112 115 116 113 123 122 122 124 124 121 120 120 119 122 118 108 110 104 100 98 89 77 94 95 100 102 98 97 93 93 90 88 82 77 76 75 73 72 69 67 65 61
266 9 234 252 283 234 43 269 162 43 214 83 99 110 159 169 187 190 177 243 156 203 167 182 51 244 207 162 96 124 148 154 147 136 141 153 143 147 132 135 149 146 142 151 145 135 143 147 145 144 112 103 90 91 93 94 104 101 89 96 132 129 127 128 126 122 120 96 86 90 92 93 93 88 81 68 54 58 75 71 89 100 96 92 85 85 82 79 77 76 74 72 70 67 64 62 61
269 292 290 241 69 279 268 330 47 225 94 85 63 121 172 178 190 294 182 202 188 198 63 89 223 240 266 126 152 149 153 153 133 137 148 151 144 145 141 136 138 144 149 159 150 150 147 149 148 143 144 145 135 115 91 79 91 92 91 102 107 108 116 120 121 115 103 96 94 89 90 87 86 81 77 68 64 58 48 39 88 104 90 86 85 84 82 80 78 74 71 71 72 72 71 70 67
296 318 249 280 259 241 171 246 112 223 77 48 58 156 170 87 358 224 237 248 99 75 110 71 6 235 86 227 145 162 153 153 143 142 144 142 144 152 141 137 141 149 163 166 156 156 151 155 145 155 165 159 154 156 149 100 87 95 98 106 108 110 109 112 108 105 106 102 98 98 91 92 88 83 74 70 68 60 83 71 57 80 93 93 93 90 90 87 84 79 76 77 77 79 80 78 72
330 282 241 242 234 242 134 233 141 259 72 51 76 51 198 130 210 247 57 354 79 80 177 157 191 323 2 40 49 129 143 148 142 143 143 142 152 161 151 154 157 160 169 169 162 169 162 169 162 162 168 170 171 157 150 139 93 92 99 103 105 111 115 113 112 108 108 110 112 116 118 118 114 108 108 88 71 66 57 72 72 83 103 109 105 98 98 96 92 86 84 85 86 86 92 87 77
274 270 219 222 245 208 118 232 181 172 83 66 125 178 201 184 149 273 359 291 247 162 199 132 167 168 42 59 53 124 137 143 144 148 148 142 158 170 160 177 160 165 171 177 166 172 174 171 182 172 179 177 166 168 158 138 116 118 101 92 102 109 116 116 111 111 111 117 125 138 154 158 143 135 158 116 107 71 60 71 74 70 90 105 108 102 97 97 97 92 91 90 96 105 109 130 125
257 223 232 226 249 210 85 35 55 73 32 57 87 197 230 202 159 169 207 229 249 135 209 151 89 177 79 98 226 133 139 151 156 157 162 154 176 176 174 176 169 167 174 180 178 168 176 175 185 182 179 185 182 172 160 137 144 189 149 147 137 128 124 131 144 145 147 139 146 169 181 151 152 162 129 154 128 129 82 77 79 85 81 67 87 90 86 84 87 92 83 96 80 234 215 209 155
274 262 249 239 237 64 44 64 53 28 68 46 69 125 224 322 55 151 230 219 208 216 215 188 197 190 154 134 161 142 152 164 165 171 169 171 184 190 178 171 180 165 176 175 180 173 179 176 184 183 175 180 185 182 179 157 166 181 168 170 157 165 151 169 169 163 175 163 180 190 164 167 158 129 79 50 74 74 95 90 99 103 101 97 95 88 84 76 83 86 123 279 270 255 249 249 53
119 253 242 244 74 82 62 44 61 43 4 43 50 98 243 209 253 100 235 262 206 234 220 196 213 192 179 155 165 153 169 171 176 181 180 181 187 201 191 177 180 176 173 175 170 179 179 178 184 184 173 175 179 185 188 185 182 184 182 175 164 185 176 194 183 184 183 173 186 185 177 131 172 107 99 105 127 146 118 112 122 124 125 120 135 133 130 128 160 199 220 236 246 242 269 3 357
134 217 229 72 70 139 95 57 44 32 356 6 26 65 237 198 231 209 235 248 241 240 243 226 211 202 171 158 165 163 172 176 182 188 184 184 188 202 208 192 182 174 170 166 167 183 182 176 171 178 168 175 180 180 189 188 187 185 189 187 184 183 179 187 180 191 183 180 189 199 155 137 190 144 160 174 203 163 156 162 169 187 176 160 201 206 181 163 203 193 195 213 235 206 277 343 342
128 216 87 97 124 137 86 71 43 350 340 317 309 274 50 50 238 233 239 243 246 18 13 246 243 205 157 163 166 167 176 181 187 189 191 191 190 191 206 204 182 176 154 174 174 173 179 179 168 167 172 173 184 181 187 178 186 193 191 193 195 197 181 185 181 182 177 188 190 197 160 167 189 168 172 183 191 168 190 185 181 172 163 150 200 195 200 190 211 211 217 232 238 254 349 319 329
208 189 215 255 38 27 103 98 68 298 312 303 311 21 326 264 272 226 234 239 266 56 25 24 21 25 151 154 157 170 180 187 192 195 195 195 193 194 196 206 184 185 169 183 172 171 174 179 173 166 173 175 184 188 186 177 192 196 193 188 200 204 182 188 186 185 178 178 191 191 183 181 192 179 173 187 190 193 196 183 187 183 178 172 187 213 178 205 227 229 234 223 278 307 282 312 278
242 219 195 207 159 188 99 85 122 274 293 326 349 307 283 283 274 276 234 240 250 100 78 68 60 111 139 154 169 176 182 188 194 195 196 197 198 198 199 204 190 187 181 187 175 172 174 178 175 176 173 176 182 194 197 182 186 200 193 183 215 204 202 190 189 190 173 177 189 190 205 189 190 190 179 183 188 199 185 195 191 181 179 186 189 248 207 211 219 230 234 292 251 226 208 280 301
208 225 185 173 173 211 186 108 211 247 260 300 282 291 285 277 294 322 250 249 247 185 120 108 123 147 164 169 176 181 184 189 192 193 195 200 201 204 206 210 209 191 194 190 179 181 174 178 178 181 176 180 183 189 198 194 188 198 191 191 200 201 210 200 190 182 182 186 186 201 203 205 191 193 183 184 183 189 167 185 193 195 188 182 179 203 212 213 212 211 201 221 217 258 299 286 329
217 236 193 157 209 201 179 250 239 189 205 209 279 276 276 273 329 267 252 246 230 193 163 156 152 166 188 189 184 185 187 190 190 190 195 196 199 202 207 209 210 210 193 191 183 186 175 179 180 183 180 185 184 186 196 196 189 194 197 192 196 196 204 204 188 191 194 190 186 195 199 215 200 195 181 190 179 179 179 177 194 186 184 173 184 197 185 229 202 179 209 217 231 275 292 303 305
253 214 168 228 234 230 200 240 246 174 261 219 271 286 289 125 264 276 114 302 193 176 190 183 182 187 189 194 191 193 192 192 193 191 190 193 200 205 206 210 212 213 199 190 187 187 177 179 184 184 185 182 185 190 194 198 190 195 194 192 195 191 198 201 195 197 201 198 195 184 195 211 209 204 186 189 185 180 184 183 196 184 188 177 178 212 163 251 237 254 289 305 316 306 301 311 311
120 102 198 241 248 247 235 237 248 254 260 212 250 274 288 218 200 245 301 130 174 201 199 183 191 196 194 193 192 196 200 197 192 192 194 193 199 201 204 205 211 211 208 206 188 182 183 186 186 186 186 180 189 192 193 202 196 198 193 199 194 190 190 201 196 194 199 206 202 183 198 198 215 201 201 190 199 191 188 188 199 190 194 174 193 232 226 220 268 293 303 292 297 293 289 296 298
141 196 235 209 222 238 217 223 231 209 240 174 270 287 267 214 238 230 227 139 166 199 195 196 197 200 194 191 187 191 201 195 191 197 202 202 200 199 204 203 204 205 209 206 203 193 186 192 192 189 187 180 192 195 193 199 200 195 197 200 199 187 192 199 198 198 198 198 196 196 201 205 205 214 195 206 204 213 216 204 212 208 214 224 208 201 274 275 246 243 245 238 269 279 285 286 282
156 198 257 199 227 241 219 185 171 179 224 140 139 265 248 235 222 230 155 156 163 196 203 196 199 201 194 190 189 193 195 195 196 201 202 204 203 201 204 200 201 204 202 202 201 205 199 183 193 192 193 188 192 198 196 195 200 197 198 201 202 191 198 198 203 203 197 196 192 193 197 205 211 214 213 201 206 217 213 213 220 220 221 220 240 214 215 233 250 262 276 267 263 262 271 283 301
193 148 187 246 219 221 120 197 181 219 148 182 181 252 253 276 198 149 127 146 193 210 208 198 198 198 197 195 195 197 195 198 201 200 202 204 203 204 203 201 197 201 202 202 200 200 199 201 190 199 192 196 189 199 201 202 197 197 198 201 200 195 200 203 202 208 203 201 193 190 193 197 207 217 214 208 205 216 210 213 217 232 232 201 207 221 247 267 256 256 262 271 282 289 288 291 288
176 161 209 209 230 131 140 130 192 224 145 215 181 246 250 249 127 111 108 188 205 232 228 213 203 199 196 196 201 202 201 200 205 204 203 203 202 203 204 203 198 201 205 203 200 200 203 201 202 210 196 201 195 199 199 206 207 204 204 200 202 192 205 205 206 206 211 206 202 194 189 196 200 207 211 215 209 212 217 217 217 227 232 233 229 239 224 246 266 258 259 272 277 275 277 272 268
187 218 205 200 207 199 195 172 229 250 353 196 206 231 87 223 240 104 153 219 219 235 238 231 212 208 201 199 201 206 204 201 202 207 204 201 201 203 201 202 201 201 204 205 201 199 206 200 193 206 211 207 206 198 200 207 216 212 210 202 206 196 208 210 210 208 210 212 210 205 190 194 198 201 207 208 219 214 220 227 225 218 222 231 237 242 246 243 245 255 258 244 263 283 284 282 276
190 199 228 213 198 212 239 109 219 200 225 204 220 246 232 250 173 153 161 176 203 231 243 241 225 211 205 202 203 206 208 205 203 204 205 200 198 200 198 199 202 201 203 207 207 204 204 206 201 202 211 209 214 215 205 209 218 221 217 212 201 211 210 218 217 212 212 213 213 211 198 192 198 201 203 205 212 219 217 219 229 229 222 218 232 239 244 244 238 250 255 244 237 257 258 275 299
194 184 206 217 216 237 246 190 158 197 193 250 226 230 250 249 262 260 189 169 188 239 244 245 239 222 211 211 211 212 215 214 212 208 205 199 197 197 200 197 200 200 201 204 208 208 208 208 210 202 202 211 209 212 220 219 222 227 228 224 219 215 226 222 223 221 212 212 212 211 210 202 201 202 201 203 210 211 217 222 231 225 222 223 230 233 231 234 243 237 241 246 229 236 324 343 322
224 184 206 208 212 218 229 190 137 196 200 219 236 239 235 237 246 250 246 184 216 237 241 245 243 236 228 219 218 218 218 224 219 214 203 195 195 194 196 197 197 199 201 201 204 207 210 208 207 212 206 214 213 210 205 214 218 222 223 226 229 223 215 226 228 236 226 221 218 216 214 216 213 201 202 203 207 212 213 218 225 225 222 223 223 227 232 228 221 223 232 244 239 214 181 263 280
240 225 214 226 229 246 183 170 136 162 232 237 235 242 249 251 238 247 250 206 210 225 237 241 240 239 233 225 223 221 220 225 212 208 194 194 193 193 194 194 196 198 203 203 203 206 208 208 205 211 209 210 211 210 211 201 202 212 221 221 221 220 203 207 224 227 233 228 225 222 219 216 226 216 204 202 204 208 216 220 224 225 224 224 220 223 225 236 232 227 222 226 242 241 229 215 222
240 214 218 220 220 246 190 187 147 167 221 247 229 244 251 251 247 246 247 228 220 227 233 236 242 242 236 228 228 218 220 211 193 185 191 191 194 193 192 194 194 196 202 204 205 204 205 206 208 208 207 207 209 211 210 209 206 206 205 212 217 218 207 204 216 217 223 227 222 218 219 220 221 223 210 203 205 206 211 221 222 218 218 225 226 229 229 232 236 232 220 234 217 242 242 215 174
226 227 203 233 220 221 79 150 170 174 224 253 245 248 255 252 249 248 247 248 247 238 234 237 238 238 238 232 231 225 210 215 202 200 191 194 194 193 193 197 200 204 201 203 205 204 205 207 210 207 206 205 204 208 210 213 210 207 209 211 212 216 217 209 212 213 212 219 219 216 219 223 222 223 218 209 206 208 213 218 220 219 221 221 222 229 230 230 229 229 226 235 232 202 236 224 205
223 217 221 218 217 200 218 190 183 197 220 300 351 304 275 268 257 251 244 241 246 241 235 236 230 235 235 234 229 221 223 220 219 211 201 198 194 194 198 202 204 203 205 205 204 206 205 207 207 206 206 204 204 201 206 214 213 212 216 220 216 219 219 211 207 214 216 220 224 221 221 224 224 224 223 216 216 208 209 217 223 225 226 224 227 227 227 227 225 226 230 229 234 224 200 212 205
222 227 226 227 201 207 281 113 202 194 238 272 276 274 267 250 249 240 234 232 240 240 238 231 226 229 240 246 239 222 230 224 229 231 211 193 191 196 199 203 200 202 205 205 202 203 205 205 203 201 203 204 205 203 197 204 209 214 220 220 228 223 226 222 212 217 219 222 224 225 225 218 222 225 223 220 216 221 219 219 221 225 228 225 223 228 232 232 228 230 224 220 209 222 218 191 196
218 222 230 230 222 235 160 152 202 233 230 182 262 286 273 237 229 233 230 219 225 228 230 220 215 216 218 228 228 224 227 231 234 233 223 199 195 198 201 200 200 205 207 209 203 205 206 205 201 200 202 202 204 204 196 195 206 210 207 212 212 218 223 218 215 216 218 221 222 222 225 219 218 219 220 222 221 213 214 213 220 221 224 227 221 223 232 234 230 225 214 215 213 211 234 178 177
220 213 210 237 247 238 206 219 219 255 261 101 268 240 276 335 308 260 230 231 234 224 215 215 216 217 214 211 214 216 213 218 221 235 230 215 204 196 197 199 204 206 212 205 205 209 208 206 203 201 202 203 201 201 195 191 201 205 206 209 211 213 220 226 223 221 226 226 223 219 219 218 216 212 216 219 220 211 214 221 218 217 214 217 220 224 230 231 233 225 217 211 218 187 172 224 182
224 44 183 211 225 212 213 236 245 276 6 249 193 265 282 289 264 249 225 225 236 235 229 216 213 212 215 210 206 205 207 206 200 213 217 217 214 203 204 205 204 213 208 200 206 208 208 208 204 203 204 204 202 198 197 195 197 200 203 208 212 217 217 222 217 219 223 230 227 218 208 210 201 212 219 221 222 219 216 220 212 211 216 215 212 220 225 223 227 215 217 204 201 193 199 205 185
194 114 152 193 204 206 216 231 247 307 355 277 175 144 260 255 268 194 220 229 223 231 232 232 228 217 215 213 211 205 204 203 202 202 209 208 209 212 214 208 206 208 201 202 205 208 210 211 210 208 208 206 204 198 199 199 199 200 201 204 211 215 218 222 224 218 217 220 227 221 215 212 207 209 219 221 215 219 204 206 211 212 211 207 208 218 220 221 219 210 189 193 196 196 206 209 197
52 177 126 133 143 100 177 234 267 265 257 250 221 169 253 269 263 256 219 227 235 236 238 233 229 223 216 215 214 212 211 210 211 210 211 205 204 207 212 214 210 202 194 198 205 205 207 208 210 211 212 209 206 205 202 204 202 202 207 209 210 210 207 215 218 219 218 217 220 220 218 213 211 211 212 216 214 210 203 208 210 210 212 209 192 208 209 215 212 208 185 196 197 201 203 198 219
123 128 126 121 137 162 156 280 301 272 251 250 220 203 235 291 251 235 214 236 221 234 240 241 236 230 224 214 207 206 209 193 167 206 228 225 218 213 184 200 211 205 182 196 202 206 206 208 212 214 218 216 214 212 205 206 206 205 211 212 212 212 208 207 211 220 221 218 217 213 214 214 212 214 208 210 212 207 205 200 202 206 205 204 183 192 195 200 207 209 198 197 193 189 184 188 207
158 151 151 134 100 137 180 168 191 241 252 45 195 203 189 236 204 228 230 79 200 229 242 242 241 242 238 216 203 198 169 146 160 186 218 223 226 225 219 224 216 210 203 201 207 207 211 213 213 220 220 218 216 212 210 210 209 211 213 212 213 214 212 209 211 213 213 218 215 214 212 214 214 211 210 208 208 202 199 204 202 209 199 179 180 196 198 201 206 200 187 184 183 177 174 183 168
179 163 169 172 162 143 229 209 221 224 253 115 76 159 232 239 242 258 223 236 227 228 240 243 245 251 249 245 99 85 95 119 168 195 202 201 209 211 208 217 205 204 208 206 205 204 211 216 216 218 221 215 215 210 211 210 210 213 211 212 214 215 217 217 215 216 212 214 214 216 215 215 213 210 207 206 207 197 190 190 190 197 190 189 189 188 198 203 199 190 184 180 183 179 177 172 177
176 183 179 182 182 181 243 221 243 271 144 130 143 78 262 298 280 222 247 246 241 235 237 243 252 257 283 15 327 136 166 197 209 210 211 213 208 206 205 204 195 193 200 199 204 205 203 213 217 221 225 217 214 214 213 212 213 213 212 214 215 214 222 223 225 221 214 214 213 218 221 219 216 216 208 203 207 203 192 188 184 189 188 185 191 197 198 198 195 184 176 179 178 177 175 183 185
184 192 184 198 187 185 217 204 211 229 116 131 135 141 249 202 87 353 301 308 262 255 280 307 337 312 290 293 276 262 250 235 211 209 211 219 216 211 206 198 197 191 190 193 197 203 203 211 210 215 220 217 215 215 213 215 215 215 213 213 215 216 221 226 229 228 223 220 215 221 223 222 221 218 212 203 206 200 186 186 187 186 183 189 179 184 187 188 187 181 178 171 172 175 169 183 184
185 192 210 220 220 245 275 15 290 147 163 177 187 222 262 237 8 267 250 254 245 249 249 237 247 238 239 261 256 242 248 246 204 196 211 219 219 223 218 209 197 193 193 191 194 192 199 209 209 214 214 213 214 213 215 214 215 215 215 216 218 222 226 231 231 226 227 218 215 219 222 224 220 217 213 205 206 200 187 186 189 193 180 183 186 186 179 179 186 185 169 165 171 167 163 171 143
176 189 205 205 11 229 240 176 126 350 297 253 156 252 252 267 266 260 251 234 239 232 225 214 230 229 224 243 243 231 228 234 226 237 248 243 230 216 224 232 225 203 187 192 187 190 196 201 206 211 212 213 216 214 216 215 217 217 217 216 219 223 227 230 233 231 226 228 220 213 221 225 219 213 212 201 195 196 189 188 186 185 178 178 179 174 166 184 188 183 168 168 167 173 169 174 149
140 206 198 89 37 4 245 230 140 230 248 256 154 227 243 187 286 189 205 220 228 220 211 219 221 216 219 231 229 225 224 209 213 244 246 237 233 238 224 203 206 189 173 174 188 191 198 206 204 206 207 211 214 217 219 220 219 221 219 218 220 223 227 229 232 236 231 228 227 222 218 220 203 202 210 193 193 186 188 183 184 180 176 173 176 170 174 176 162 159 157 163 171 171 157 142 154
206 186 148 155 195 219 209 276 248 207 231 261 225 220 240 230 224 125 196 220 232 235 231 229 211 199 219 232 235 225 153 192 229 232 227 217 209 218 220 200 167 172 182 193 183 185 202 213 214 212 206 208 209 209 213 215 225 221 226 229 225 225 228 233 234 236 240 231 220 211 210 209 194 199 193 173 188 182 186 187 182 175 168 165 154 158 155 155 166 171 167 165 161 161 144 138 149
352 6 200 215 320 223 188 207 302 240 249 244 266 145 260 197 223 202 191 193 209 208 222 227 231 211 209 213 226 241 223 263 253 260 266 258 245 229 201 179 177 177 176 176 180 177 206 220 215 229 252 229 203 201 191 198 217 233 233 242 238 235 233 234 237 234 232 230 222 216 214 211 202 192 192 183 186 187 183 182 179 174 169 158 153 151 160 165 175 173 162 153 163 145 135 141 137
181 192 196 181 217 10 316 234 218 215 255 246 274 260 251 206 184 200 200 185 181 179 178 193 224 211 188 197 216 196 251 264 263 257 269 263 247 188 176 166 123 94 75 78 105 149 118 123 162 194 211 208 213 224 208 197 208 216 223 224 221 216 219 217 226 225 228 226 217 197 204 203 187 200 187 190 192 187 181 177 170 165 159 158 158 164 171 169 169 152 143 145 140 149 148 146 144
192 190 200 193 181 185 193 229 188 227 219 247 240 254 307 105 201 191 207 216 244 257 268 244 198 153 181 177 174 188 232 238 232 259 267 277 267 202 142 116 93 112 136 165 173 183 192 192 192 175 195 204 201 204 221 220 220 225 222 223 225 228 223 222 222 222 220 218 220 208 204 200 205 198 189 192 189 184 178 175 174 171 172 172 175 177 164 156 155 153 149 144 157 164 158 151 152